• MPC Preparation (Info)

  • MPEC 2015-R62 : 2015 RO35

    The following Minor Planet Electronic Circular may be linked-to from your own Web pages, but must not otherwise be redistributed electronically.

    A form allowing access to any MPEC is at the bottom of this page.


    Read MPEC 2015-R61 Read MPEC 2015-R63


    M.P.E.C. 2015-R62                                Issued 2015 Sept. 12, 14:27 UT
    
         The Minor Planet Electronic Circulars contain information on unusual
             minor planets and routine data on comets.  They are published
        on behalf of Division F of the International Astronomical Union by the
              Minor Planet Center, Smithsonian Astrophysical Observatory,
                              Cambridge, MA 02138, U.S.A.
    
                 Prepared using the Tamkin Foundation Computer Network
    
                                  MPC@CFA.HARVARD.EDU
                URL https://www.minorplanetcenter.net/    ISSN 1523-6714
    
                                       2015 RO35
    
    Observations:
         K15R35O* C2015 09 09.51645 03 03 53.652+19 36 24.78         21.8 wLER062F51
         K15R35O  C2015 09 09.52823 03 03 56.153+19 36 53.55         21.5 wLER062F51
         K15R35O  C2015 09 09.53999 03 03 58.669+19 37 21.98         21.8 wLER062F51
         K15R35O  C2015 09 09.55179 03 04 01.132+19 37 50.41         21.5 wLER062F51
         K15R35O _C2015 09 10.54390503 08 14.018+20 12 52.46         21.2 RtER062568
         K15R35O _C2015 09 10.54522603 08 14.256+20 12 55.24         21.2 RtER062568
         K15R35O _C2015 09 10.54655003 08 14.482+20 12 57.91         21.3 RtER062568
         K15R35O KC2015 09 12.43164 03 14 42.28 +21 05 58.6          20.2 RoER062291
         K15R35O KC2015 09 12.43654 03 14 42.92 +21 06 05.9          20.9 RoER062291
         K15R35O KC2015 09 12.44145 03 14 43.56 +21 06 13.6          21.0 RoER062291
    
    Observer details:
    291 LPL/Spacewatch II.  Observer R. A. Mastaler.  1.8-m f/2.7 reflector + CCD.
    568 Mauna Kea.  Observers R. J. Wainscoat, D. Woodworth.  Measurers M. Micheli,
        R. J. Wainscoat.  3.6-m Canada-France-Hawaii Telescope + CCD.
    F51 Pan-STARRS 1, Haleakala.  Observers B. Gibson, T. Goggia, N. Primak,
        A. Schultz, M. Willman.  Measurers K. Chambers, S. Chastel, L. Denneau,
        H. Flewelling, M. Huber, E. Lilly, E. Magnier, R. Wainscoat, C. Waters,
        R. Weryk.  1.8-m Ritchey-Chretien + CCD.
    
    Orbital elements:
    2015 RO35                                                Earth MOID = 0.0171 AU
    Epoch 2015 June 27.0 TT = JDT 2457200.5                 MPC
    M 341.20184              (2000.0)            P               Q
    n   0.29025171     Peri.  353.87892     +0.92388117     +0.38263433
    a   2.2591905      Node   343.62034     -0.35021146     +0.83920336
    e   0.5458012      Incl.    1.19448     -0.15425799     +0.38643069
    P   3.40           H   25.6           G   0.15           U   7
    Residuals in seconds of arc
    150909 F51  0.1-  0.1-    150910 568  0.1-  0.2-    150912 291  0.2-  0.1-
    150909 F51  0.4-  0.1-    150910 568  0.0   0.1-    150912 291  0.0   0.0
    150909 F51  0.1-  0.1-    150910 568  0.1-  0.2-
    150909 F51  0.2-  0.1+    150912 291  0.3-  0.1+
    
    Ephemeris:
    2015 RO35                a,e,i = 2.26, 0.55, 1                   q = 1.0261
    Date    TT    R. A. (2000) Decl.     Delta      r     Elong.  Phase     V
    2015 08 13    17 30 16.4 -32 09 40   0.06388 1.0499   123.4    53.7    21.7
    ...
    2015 08 28    22 59 22.6 -19 25 44   0.01678 1.0266   167.3    12.5    17.5
    ...
    2015 09 05    02 32 56.3 +15 08 04   0.03688 1.0280   121.2    57.0    20.6
    ...
    2015 09 11    03 09 54.9 +20 27 13   0.05962 1.0354   117.1    60.0    21.7
    2015 09 12    03 13 20.3 +20 55 26   0.06349 1.0371   117.1    59.8    21.8
    2015 09 13    03 16 18.1 +21 19 50   0.06738 1.0390   117.3    59.4    22.0
    ...
    2015 09 19    03 27 24.5 +22 54 07   0.09077 1.0534   120.2    55.5    22.5
    ...
    2015 09 27    03 31 57.1 +23 46 18   0.1221  1.0800   126.8    48.0    23.0
    ...
    2015 10 12    03 25 04.0 +23 45 07   0.1828  1.1494   142.9    31.6    23.6
    
    A. U. Tomatic                (C) Copyright 2015 MPC           M.P.E.C. 2015-R62
    

    Read MPEC 2015-R61 Read MPEC 2015-R63


    MPEC number:

    Enter an MPEC number in one of the following forms:

    • 1997-B01 (the full form)
    • J97B01 (the packed version of the full form)
    • B01 (the abbreviated form)